Larsen: Past 24 Hour Conditions

 

Resolute Airport

05:00 AM CDT 21 October 2014
This table is a summary of hourly weather conditions for the past 24 hours.
Date / Time
(CDT)
Wind(knots) Conditions Visibility(km) Pressure(kPa) Air tempC) Relative humidity(%) Dew pointC) Wind Chill
21 October 2014
5:00 NNW 12 Ice Crystals 24 101.7 -22 81 -24 -33
4:00 NW 15 Ice Crystals 24 101.7 -22 80 -25 -35
3:00 N 14 Ice Crystals 24 101.7 -22 81 -24 -34
2:00 N 7 Ice Crystals 24 101.8 -23 79 -26 -32
1:00 NNW 10 Clear 24 101.8 -24 80 -26 -34
0:00 NNE 20 Ice Crystals 24 101.8 -23 79 -26 -38
20 October 2014
23:00 NE 16 Ice Crystals 24 101.7 -21 81 -24 -34
22:00 NNE 13 Clear 24 101.7 -22 81 -24 -34
21:00 NW 8 Clear 24 101.8 -23 80 -26 -33
20:00 NNW 8 Clear 24 101.8 -23 80 -25 -32
19:00 N 10 Snow Grains 24 101.8 -20 83 -22 -30
18:00 N 13 Snow Grains 21 101.8 -17 84 -19 -28
17:00 N 10 Mostly Cloudy 24 101.8 -16 86 -18 -25
16:00 N 13 Mainly Sunny 24 101.8 -17 85 -18 -27
15:00 NE 15 Sunny 24 101.7 -17 84 -19 -28
14:00 NE 16 Sunny 24 101.7 -16 85 -18 -28
13:00 NE 19 Sunny 24 101.7 -16 85 -18 -28
12:00 NE 18 Drifting Snow 16 101.7 -16 86 -18 -28
11:00 NE 20 Drifting Snow 24 101.7 -16 83 -18 -29
10:00 NE 15 Mainly Sunny 24 101.7 -16 81 -18 -27
9:00 NE 16 Mainly Clear 24 101.7 -18 82 -21 -30
8:00 NNE 13 Mainly Clear 24 101.7 -18 83 -20 -29
7:00 NE 12 Mostly Cloudy 24 101.7 -15 81 -17 -24
6:00 NNE 14 Mostly Cloudy 24 101.7 -15 81 -17 -25
5:00 NE 12 Mostly Cloudy 24 101.7 -15 81 -17 -25
 
Map of Arctic - Eastern Arctic marine weather areas Baker Lake Airport Chesterfield Inlet Airport Coral Harbour Airport Gjoa Haven Airport Kugaaruk Airport Rankin Inlet Airport Shepherd Bay Airport Whale Cove Airport Arctic Bay Brevoort Island Qikiqtarjuaq Airport Cape Dorset Airport Cape Dyer Cape Hooper Clyde Airport Grise Fiord Airport Hall Beach Airport Igloolik Airport Iqaluit Airport Longstaff Bluff Pangnirtung Airport Pond Inlet Airport Repulse Bay Airport Resolute Airport Resolution Island Rowley Island Airport Taloyoak Airport Wager Bay Akulivik Airport Ivujivik Airport Puvirnituq Airport Kangiqsujuaq Airport Kangirsuk Airport Quaqtaq Airport Tasiujaq Airport Cape Kakkiviak Cape Kiglapait Nain Airport Saglek Cape Mercy Kimmirut Airport Aupaluk Airport Salluit Airport Kangiqsualujjuaq Airport Fort Ross
Legend: buoyBuoy land stationLand Station